www.pogodaiklimat.ru

Погода и климат >> Архив погоды >> Австралия >> Thargomindah Airport


ПОГОДА в Thargomindah Airport

  • Прогноз погоды в Thargomindah Airport
  • Монитор погоды в Thargomindah Airport
  • Климат города

АРХИВ ПОГОДЫ в Thargomindah Airport

Время (UTC), дата Ветер
(напр.,м/с)
 
Видим.   Явления Облачность Т
(С)
Тd
(С)
f
(%)
Тe
(С)
Тes
(С)
Комфортность P
(гПа)
Po
(гПа)
Тmin
(С)
Tmax
(С)
R
(мм)
R24
(мм)
S
(см)
17 19.06 Ю 3 н/о н/о +10.1 +3.2 62 +8 +8 1024.8 1009.0
18 19.06 Ю 4 н/о н/о +9.2 +3.8 69 +7 +7 1024.8 1008.7
20 19.06 ЮВ 3 н/о н/о +10.0 +4.2 67 +8 +8 1024.3 1008.5
21 19.06 ЮВ 3 н/о н/о +9.7 +4.1 68 +8 +8 1025.1 1009.0
23 19.06 В 3 н/о н/о +13.5 +4.9 56 +13 +13 1026.0 1010.1
00 20.06 В 4 н/о н/о +16.0 +5.9 51 +15 +15 1026.5 1010.4
02 20.06 В 4 н/о н/о +20.1 +5.7 39 +21 +21 комфорт 1025.1 1009.3 +8.5
03 20.06 Ю 3 н/о н/о +20.8 +4.8 35 +22 +22 комфорт 1024.2 1008.1
05 20.06 В 3 н/о н/о +22.1 +2.2 27 +22 +22 комфорт 1022.8 1007.0
06 20.06 В 3 н/о н/о +21.8 +2.5 28 +22 +22 комфорт 1022.9 1007.0
08 20.06 ЮВ 3 н/о н/о +19.1 +2.5 33 +20 +20 1023.2 1007.4
09 20.06 ЮВ 3 н/о н/о +17.9 +3.8 39 +18 +18 1024.1 1008.0
11 20.06 ЮВ 3 н/о н/о +14.9 +3.7 47 +14 +14 1024.7 1008.9
12 20.06 ЮВ 3 н/о н/о +14.4 +4.1 50 +14 +14 1025.1 1009.0
14 20.06 ЮВ 3 н/о н/о +12.2 +4.4 59 +11 +11 1024.4 1008.6 +22.4
15 20.06 ЮВ 3 н/о н/о +12.1 +4.6 60 +11 +11 1024.4 1008.3
17 20.06 ЮВ 3 н/о н/о +10.5 +4.2 65 +9 +9 1023.7 1007.9
18 20.06 ЮВ 3 н/о н/о +9.8 +4.4 69 +8 +8 1023.6 1007.6
20 20.06 В 2 н/о н/о +8.2 +3.7 73 +7 +7 1024.1 1008.3
21 20.06 ЮВ 2 н/о н/о +6.6 +3.0 78 +5 +5 1025.2 1009.1
23 20.06 ЮВ 3 н/о н/о +12.0 +4.2 59 +11 +11 1026.4 1010.5
00 21.06 В 3 н/о н/о +16.4 +5.4 48 +16 +16 1026.9 1010.8
02 21.06 В 4 н/о н/о +19.5 +3.2 34 +20 +20 1025.6 1009.7 +6.4
03 21.06 ЮВ 3 н/о н/о +20.2 +3.0 32 +21 +21 комфорт 1025.0 1008.9
05 21.06 ЮВ 3 н/о н/о +21.3 +1.6 27 +21 +21 комфорт 1023.1 1007.3
06 21.06 В 3 н/о н/о +21.6 +1.3 26 +21 +21 комфорт 1023.1 1007.1
08 21.06 ЮВ 3 н/о н/о +18.6 +1.2 31 +19 +19 1023.2 1007.4
09 21.06 ЮВ 3 н/о н/о +17.5 +2.3 36 +18 +18 1024.4 1008.3
11 21.06 ЮВ 3 н/о н/о +15.2 +3.4 45 +15 +15 1025.2 1009.4
12 21.06 ЮВ 3 н/о н/о +13.7 +3.2 49 +13 +13 1025.4 1009.3
14 21.06 ЮВ 3 н/о н/о +12.6 +3.3 53 +11 +11 1024.8 1009.0 +21.9
15 21.06 ЮВ 3 н/о н/о +12.2 +3.7 56 +11 +11 1024.6 1008.5
17 21.06 ЮВ 2 н/о н/о +9.9 +3.2 63 +9 +9 1023.7 1007.9
18 21.06 ЮВ 3 н/о н/о +9.5 +3.3 65 +8 +8 1024.2 1008.1
20 21.06 штиль 0 н/о н/о +6.4 +1.7 72 +6 +6 1024.1 1008.3
21 21.06 В 2 н/о н/о +5.8 +1.0 71 +4 +4 1024.8 1008.7
23 21.06 В 3 н/о н/о +13.6 +3.4 50 +13 +13 1026.0 1010.1
00 22.06 СВ 5 н/о н/о +15.8 +3.3 43 +15 +15 1026.0 1009.9
02 22.06 СВ 5 н/о н/о +19.7 +3.4 34 +20 +20 1024.3 1008.5 +5.8
03 22.06 С 3 н/о н/о +21.3 +3.0 30 +21 +21 комфорт 1023.4 1007.4
05 22.06 ЮЗ 3 н/о н/о +22.8 +0.6 23 +22 +22 комфорт 1021.7 1005.9
06 22.06 Ю 2 н/о н/о +22.6 +0.4 23 +22 +22 комфорт 1021.4 1005.5
08 22.06 ЮВ 3 н/о н/о +19.4 +0.9 29 +20 +20 1021.6 1005.8
09 22.06 Ю 3 н/о н/о +16.8 +0.5 33 +17 +17 1022.1 1006.2
11 22.06 ЮВ 3 н/о н/о +14.6 +0.8 39 +14 +14 1022.5 1006.7
12 22.06 ЮВ 3 н/о н/о +14.3 +0.9 40 +14 +14 1022.9 1007.0
14 22.06 ЮВ 2 н/о н/о +11.8 +1.2 48 +11 +11 1021.9 1006.1 +23.5
15 22.06 В 2 н/о н/о +9.1 -0.2 52 +8 +8 1021.2 1005.3
17 22.06 штиль 0 н/о н/о +8.3 +0.8 59 +8 +8 1021.0 1005.2
18 22.06 штиль 0 н/о н/о +7.4 -0.5 57 +7 +7 1020.8 1004.9
20 22.06 штиль 0 н/о н/о +7.1 +0.5 63 +7 +7 1020.9 1005.1
21 22.06 штиль 0 н/о н/о +6.2 +0.1 65 +6 +6 1021.5 1005.6
23 22.06 С 1 н/о н/о +12.9 +1.3 45 +14 +14 1022.3 1006.5
00 23.06 С 2 н/о н/о +16.4 +0.9 35 +17 +17 1022.5 1006.6
02 23.06 СЗ 3 н/о н/о +22.7 +1.7 25 +22 +22 комфорт 1021.0 1005.2 +5.9
03 23.06 З 4 н/о н/о +23.8 +1.4 23 +23 +23 комфорт 1020.1 1004.2
05 23.06 ЮЗ 6 н/о н/о +24.7 +0.9 21 +23 +23 комфорт 1018.7 1003.0
06 23.06 ЮЗ 5 н/о н/о +24.5 +0.8 21 +23 +23 комфорт 1018.6 1002.7
08 23.06 ЮЗ 3 н/о н/о +20.9 +0.7 26 +21 +21 комфорт 1018.7 1003.0
09 23.06 Ю 2 н/о н/о +18.0 +0.6 31 +19 +19 1019.1 1003.2
11 23.06 Ю 3 н/о н/о +15.9 +1.2 37 +16 +16 1019.6 1003.8
12 23.06 ЮВ 3 н/о н/о +15.7 +0.7 36 +16 +16 1019.8 1003.9
14 23.06 штиль 0 н/о н/о +10.9 0.0 47 +11 +11 1019.4 1003.6 +25.5
15 23.06 штиль 0 н/о н/о +9.7 +0.1 51 +9 +9 1019.1 1003.2
17 23.06 штиль 0 н/о н/о +9.3 +1.2 57 +9 +9 1018.7 1003.0
18 23.06 штиль 0 н/о н/о +8.3 -0.4 54 +8 +8 1018.8 1002.9
20 23.06 штиль 0 н/о н/о +7.2 -0.7 57 +7 +7 1018.8 1003.1
21 23.06 штиль 0 н/о н/о +6.4 -0.3 62 +6 +6 1019.4 1003.5
23 23.06 штиль 0 н/о н/о +12.4 +1.1 46 +12 +12 1020.2 1004.4
00 24.06 штиль 0 н/о н/о +16.9 +0.5 33 +17 +17 1020.7 1004.8
02 24.06 С 1 н/о н/о +22.9 +0.1 22 +22 +22 комфорт 1019.2 1003.4 +6.5
03 24.06 З 2 н/о н/о +23.8 +0.2 21 +23 +23 комфорт 1018.4 1002.5
05 24.06 ЮЗ 2 н/о н/о +24.7 +0.3 20 +23 +23 комфорт 1017.2 1001.5
06 24.06 З 3 н/о н/о +23.8 -0.5 20 +23 +23 комфорт 1017.2 1001.3
08 24.06 ЮВ 2 н/о н/о +20.2 -0.4 25 +21 +21 комфорт 1017.3 1001.6
09 24.06 Ю 2 н/о н/о +18.1 +0.3 30 +19 +19 1018.1 1002.2
11 24.06 ЮВ 2 н/о н/о +16.6 -1.5 29 +17 +17 1018.6 1002.9
12 24.06 В 2 н/о н/о +14.5 -1.2 34 +14 +14 1019.0 1003.1
14 24.06 СВ 2 н/о н/о +12.2 -1.3 39 +12 +12 1018.1 1002.4 +25.0
15 24.06 штиль 0 н/о н/о +10.6 -2.1 41 +11 +11 1018.3 1002.4
17 24.06 штиль 0 н/о н/о +9.4 -0.8 49 +9 +9 1017.9 1002.2
18 24.06 штиль 0 н/о н/о +9.3 0.0 52 +9 +9 1018.0 1002.1
20 24.06 В 2 н/о н/о +7.4 -1.0 55 +6 +6 1017.8 1002.1
21 24.06 ЮВ 2 н/о н/о +7.9 -0.6 55 +7 +7 1018.5 1002.6
23 24.06 В 1 н/о н/о +13.9 -0.9 36 +15 +15 1019.7 1003.9
00 25.06 СВ 1 н/о н/о +18.1 -0.2 29 +19 +19 1019.9 1004.0
02 25.06 З 3 н/о н/о +23.6 0.0 21 +22 +22 комфорт 1019.4 1003.6 +7.5
03 25.06 З 3 н/о н/о +24.6 +0.2 20 +23 +23 комфорт 1018.7 1002.8
05 25.06 ЮЗ 3 н/о н/о +24.9 -0.3 19 +23 +23 комфорт 1017.5 1001.8
06 25.06 З 5 н/о н/о +24.7 +0.3 20 +23 +23 комфорт 1017.8 1001.9
08 25.06 ЮЗ 3 н/о н/о +21.8 +0.4 24 +21 +21 комфорт 1018.1 1002.4
09 25.06 ЮЗ 2 н/о н/о +19.5 0.0 27 +20 +20 1018.7 1002.8
11 25.06 З 3 н/о н/о +16.6 +0.7 34 +16 +16 1019.8 1004.0
12 25.06 ЮЗ 4 н/о н/о +16.6 +0.7 34 +16 +16 1020.2 1004.3
14 25.06 Ю 4 н/о н/о +15.0 +1.2 39 +14 +14 1020.3 1004.5 +25.9
15 25.06 ЮЗ 2 н/о н/о +13.8 +1.1 42 +14 +14 1020.3 1004.4
17 25.06 ЮЗ 2 н/о н/о +12.3 +1.3 47 +12 +12 1020.0 1004.2
18 25.06 Ю 3 н/о н/о +11.7 +1.1 48 +11 +11 1020.0 1004.1
20 25.06 ЮВ 2 н/о н/о +12.7 +3.6 54 +12 +12 1020.4 1004.6
21 25.06 штиль 0 н/о н/о +10.9 +2.5 56 +11 +11 1021.4 1005.5
23 25.06 Ю 3 н/о н/о +14.5 +3.6 48 +14 +14 1023.1 1007.3
00 26.06 ЮВ 4 н/о н/о +17.9 +4.5 41 +18 +18 1023.3 1007.3
02 26.06 ЮВ 4 н/о н/о +21.2 +3.4 31 +21 +21 комфорт 1022.9 1007.1 +10.3
03 26.06 ЮВ 4 н/о н/о +21.5 +2.2 28 +21 +21 комфорт 1021.6 1005.7
05 26.06 ЮВ 3 н/о н/о +22.2 +1.3 25 +22 +22 комфорт 1020.6 1004.8
06 26.06 ЮВ 3 н/о н/о +22.3 +1.3 25 +22 +22 комфорт 1020.8 1004.9
08 26.06 ЮВ 3 н/о н/о +19.7 +1.2 29 +20 +20 1020.7 1004.9
09 26.06 ЮВ 3 н/о н/о +18.5 +1.5 32 +19 +19 1021.7 1005.8
11 26.06 Ю 3 н/о н/о +16.9 +2.5 38 +17 +17 1023.0 1007.2
12 26.06 ЮВ 4 н/о н/о +17.0 +3.0 39 +17 +17 1023.4 1007.4
14 26.06 ЮВ 4 н/о н/о +15.8 +6.3 53 +15 +15 1023.4 1007.6 +23.1
15 26.06 ЮВ 5 н/о н/о +15.8 +5.4 50 +15 +15 1022.0 1006.1

 

Местоположение метеостанции Thargomindah Airport (Квинсленд, Австралия): широта -27.98 долгота 143.81 высота над уровнем моря 132 м.

В архиве по умолчанию представлена погода в Thargomindah Airport за последнюю неделю. Архивные данные за месяц целиком и за предыдущие месяцы, начиная с января 2011 года, Вы можете получить, выбрав интересующий диапазон дат из раскрывающегося списка и нажав кнопку "Ввод!".

Внимание! Время в таблицах - всемирное. Для получения местного времени необходимо прибавить поправку, которая в Thargomindah Airport равна 10 ч.

Смотрите также архив погоды в соседних городах и на ближайших метеорологических станциях:

Погода в Ballera Gas Field (Квинсленд, Австралия) (206 км)
Погода в Tibooburra Airport (Новый Южный Уэльс, Австралия) (237 км)
Погода в Charleville Aero (Квинсленд, Австралия) (299 км)
Погода в Bourke Airport Aws (Новый Южный Уэльс, Австралия) (309 км)
Погода в White Cliffs Aws (Новый Южный Уэльс, Австралия) (327 км)
Погода в Moomba Airport (Южная Австралия, Австралия) (355 км)
Погода в Wilcannia Aerodrome (Новый Южный Уэльс, Австралия) (396 км)
Погода в Fowlers Gap Aws (Новый Южный Уэльс, Австралия) (401 км)
Погода в Blackall Airport (Квинсленд, Австралия) (428 км)
Погода в Cobar Mo (Новый Южный Уэльс, Австралия) (435 км)

Пояснения к столбцам:

Ветер - указаны скорость ветра в м/с - средняя за 10 мин, порывы в срок и между сроками (в фигурных скобках) и направление, откуда дует ветер: С - северный, СВ - северо-восточный, В - восточный, ЮВ - юго-восточный, Ю - южный, ЮЗ - юго-западный, З - западный, СЗ - северо-западный.
Видимость - горизонтальная дальность видимости в метрах или километрах. При видимости от 1 до 10 км при отсутствии осадков обычно наблюдается дымка, при ухудшении видимости до 1 км и менее - туман. В сухую погоду видимость может ухудшаться дымом, пылью или мглою.
Явления - указаны атмосферные явления, наблюдавшиеся в срок или в последний час перед сроком; фигурными скобками обозначены явления, наблюдавшиеся между сроками (за 1-3 часа до срока); квадратными скобками обозначены град или гололедные отложения с указанием их диаметра в мм.
Облачность - указаны через наклонную черту общая и нижняя облачность в баллах и высота нижней границы облаков в метрах; квадратными скобками обозначены формы облаков: Ci - перистые, Cs - перисто-слоистые, Cc - перисто-кучевые, Ac - высококучевые, As - высокослоистые, Sc - слоисто-кучевые, Ns - слоисто-дождевые, Cu - кучевые, Cb - кучево-дождевые. Подробнее классификацию облаков см. в Атласе облаков (PDF).
T - Температура воздуха - температура, измеренная на высоте 2 м над землей.
Td - Температура точки росы - температура, при понижении до которой содержащийся в воздухе водяной пар достигнет насыщения.
f - Относительная влажность воздуха - влажноcть воздуха, измеренная на высоте 2 м над землей.
Te - Эффективная температура - температура, которую ощущает одетый по сезону человек в тени. Характеристика душности погоды. При расчете учитывается влияние влажности воздуха и скорости ветра на теплоощущения человека.
Tes - Эффективная температура на солнце - температура, которую ощущает человек, с поправкой на солнечный нагрев. Характеристика знойности погоды. Зависит от высоты солнца над горизонтом, облачности и скорости ветра. Ночью, в пасмурную погоду, а также при ветре 12 м/с и более поправка равна нулю.
P - Атмосферное давление - приведенное к уровню моря атмосферное давление.
Po - Атмосферное давление - измеренное на уровне метеостанции атмосферное давление.
Tmin - Минимальная температура - минимум температуры воздуха на высоте 2 м над землей.
Tmax - Максимальная температура - максимум температуры воздуха на высоте 2 м над землей.
R - Количество осадков - Количество выпавших осадков за период времени, мм. При наведении курсора мыши на число - период времени, за который выпало указанное количество осадков.
R24 - Количество осадков - Количество выпавших осадков за 24 часа, мм.
S - Снежный покров - Высота снежного покрова, см. При наведении курсора мыши на число - состояние снежного покрова и степень покрытия местности в баллах.